Location: Be?chatów
(51.3665°N, 19.3745°E)
Time: 22:39:27
(UTC+00:00)

Cosmos 1867 - Pass Details

Date: 19 May 2025
Orbit: 775 x 798 km, 65.0° (Epoch: 16 June)

Event Time Altitude Azimuth Distance (km) Brightness Sun altitude
Rises 19:48:08 0° 318° (NW) 3,314 9.2 -9.5°
Reaches altitude 10° 19:50:34 10° 317° (NW) 2,380 7.7 -9.7°
Maximum altitude 19:56:03 82° 232° (SW) 811 3.6 -10.3°
Enters shadow 20:00:45 14° 145° (SE) 2,080 5.1 -10.7°
